Albany, GA

11:49 PM EDT on March 22, 2017 (GMT -0400)
Southwest Georgia Regional

Weather History for KABY - May, 2013

Change the Weather History Date:

Monday, May 27, 2013

  Actual Average Record
Temperature  
Mean Temperature 77 °F 77 °F  
Max Temperature 90 °F 89 °F 100 °F (1962)
Min Temperature 63 °F 66 °F 47 °F (1988)
Degree Days  
Heating Degree Days 0 0  
Month to date heating degree days 18 0  
Since 1 July heating degree days 1706 1834  
Cooling Degree Days 12 12  
Month to date cooling degree days 173 249  
Year to date cooling degree days 296 389  
Growing Degree Days 27 (Base 50)    
Moisture  
Dew Point 59 °F    
Average Humidity 60    
Maximum Humidity 87    
Minimum Humidity 32    
Precipitation  
Precipitation 0.00 in 0.12 in 0.27 in (2011)
Month to date precipitation 0.97 2.13  
Year to date precipitation 16.52 19.80  
Sea Level Pressure  
Sea Level Pressure 30.18 in    
Wind  
Wind Speed 3 mph (SE)    
Max Wind Speed 13 mph    
Max Gust Speed -    
Visibility 10 miles    
Events      
T = Trace of Precipitation, MM = Missing Value Source: NWS Daily Summary

Daily Weather History Graph

Daily Weather History Graph

Search for Another Location

Airport or City:

Trip Planner

Search our weather history database for the weather conditions in past years. The results will help you decide how hot, cold, wet, or windy it might be!

Date:

Astronomy

May. 27, 2013 Rise Set
Actual Time 6:34 AM EDT 8:34 PM EDT
Civil Twilight 6:06 AM EDT 9:01 PM EDT
Nautical Twilight 5:33 AM EDT 9:34 PM EDT
Astronomical Twilight 4:57 AM EDT 10:10 PM EDT
Moon 11:17 PM EDT (5/27) 9:07 AM EDT (5/27)
Length of Visible Light 14h 54m
Length of Day
14h 00m
Waning Gibbous, 91% of the Moon is Illuminated
May 27
Waning Gibbous
May 31
Last Quarter
Jun 8
New
Jun 16
First Quarter
Jun 23
Full

Hourly Weather History & Observations

Time (EDT) Temp. Heat Index Dew Point Humidity Pressure Visibility Wind Dir Wind Speed Gust Speed Precip Events Conditions
12:53 AM 64.9 °F - 60.1 °F 84% 30.19 in 10.0 mi SW 3.5 mph - N/A   Clear
1:53 AM 66.9 °F - 60.1 °F 79% 30.18 in 10.0 mi Calm Calm - N/A   Clear
2:53 AM 64.9 °F - 60.1 °F 84% 30.18 in 10.0 mi Calm Calm - N/A   Clear
3:53 AM 64.9 °F - 60.1 °F 84% 30.17 in 10.0 mi Calm Calm - N/A   Clear
4:53 AM 64.9 °F - 60.1 °F 84% 30.17 in 10.0 mi Calm Calm - N/A   Clear
5:53 AM 64.9 °F - 61.0 °F 87% 30.19 in 10.0 mi Calm Calm - N/A   Clear
6:53 AM 64.0 °F - 60.1 °F 87% 30.22 in 10.0 mi Calm Calm - N/A   Clear
7:53 AM 66.9 °F - 61.0 °F 81% 30.23 in 10.0 mi Calm Calm - N/A   Clear
8:53 AM 72.0 °F - 61.0 °F 68% 30.24 in 10.0 mi Calm Calm - N/A   Clear
9:53 AM 75.9 °F - 63.0 °F 64% 30.25 in 10.0 mi Calm Calm - N/A   Clear
10:53 AM 80.1 °F 81.5 °F 63.0 °F 56% 30.24 in 10.0 mi Calm Calm - N/A   Clear
11:53 AM 82.9 °F 83.7 °F 62.1 °F 49% 30.23 in 10.0 mi Calm Calm - N/A   Clear
12:53 PM 84.9 °F 84.2 °F 57.9 °F 40% 30.21 in 10.0 mi Variable 3.5 mph - N/A   Clear
1:53 PM 87.1 °F 86.5 °F 59.0 °F 39% 30.19 in 10.0 mi SSW 8.1 mph - N/A   Partly Cloudy
2:53 PM 88.0 °F 86.9 °F 57.9 °F 36% 30.17 in 10.0 mi South 10.4 mph - N/A   Scattered Clouds
3:53 PM 88.0 °F 86.7 °F 57.0 °F 35% 30.15 in 10.0 mi SE 8.1 mph - N/A   Scattered Clouds
4:53 PM 90.0 °F 87.9 °F 55.0 °F 30% 30.14 in 10.0 mi East 5.8 mph - N/A   Partly Cloudy
5:53 PM 89.1 °F 87.3 °F 55.9 °F 32% 30.12 in 10.0 mi Variable 5.8 mph - N/A   Scattered Clouds
6:53 PM 87.1 °F 85.3 °F 55.0 °F 33% 30.12 in 10.0 mi East 6.9 mph - N/A   Clear
7:53 PM 84.0 °F 82.6 °F 54.0 °F 35% 30.12 in 10.0 mi SSE 6.9 mph - N/A   Clear
8:53 PM 79.0 °F - 55.9 °F 45% 30.13 in 10.0 mi Calm Calm - N/A   Clear
9:53 PM 75.0 °F - 57.0 °F 53% 30.14 in 10.0 mi East 3.5 mph - N/A   Clear
10:53 PM 73.9 °F - 59.0 °F 59% 30.15 in 10.0 mi East 5.8 mph - N/A   Clear
11:53 PM 73.0 °F - 57.9 °F 59% 30.17 in 10.0 mi SE 6.9 mph - N/A   Clear